This is the latest recevied weather packets stored in our database for station/object K7D3. If no packets are shown the sender has not sent any weather packets the latest 10 day(s).
| Time | Temp. | Humidity | Pressure | Rain* | Wind** | Luminosity | Snow |
|---|---|---|---|---|---|---|---|
| 1777508354 | 6.67° C | 94% | - | 0 mm | 0 m/s | - | - |
| 1777507875 | 6.67° C | 94% | - | 0 mm | 0 m/s | - | - |
| 1777507396 | 6.67° C | 94% | - | 0 mm | 0 m/s | - | - |
| 1777506913 | 6.67° C | 94% | - | 0 mm | 0.89 m/s, 346° | - | - |
| 1777506434 | 6.67° C | 93% | - | 0 mm | 0.89 m/s, 342° | - | - |
| 1777505955 | 6.67° C | 93% | - | 0 mm | 0 m/s | - | - |
| 1777505473 | 6.67° C | 93% | - | 0 mm | 1.34 m/s, 4° | - | - |
| 1777504993 | 6.67° C | 92% | - | 0 mm | 2.24 m/s, 10° | - | - |
| 1777504514 | 6.67° C | 92% | - | 0 mm | 0.45 m/s, 25° | - | - |
| 1777504032 | 6.67° C | 92% | - | 0 mm | 1.34 m/s, 53° | - | - |
| 1777503553 | 6.67° C | 91% | - | 0 mm | 2.24 m/s, 44° | - | - |
| 1777503073 | 6.67° C | 91% | - | 0 mm | 3.13 m/s, 76° | - | - |
| 1777502591 | 6.67° C | 92% | - | 0 mm | 0 m/s | - | - |
| 1777502112 | 6.67° C | 91% | - | 0 mm | 0.89 m/s, 338° | - | - |
| 1777501633 | 6.67° C | 90% | - | 0 mm | 2.24 m/s, 354° | - | - |
| 1777501150 | 6.67° C | 87% | - | 0.25 mm | 2.68 m/s, 77° | - | - |
| 1777500671 | 6.67° C | 87% | - | 0.25 mm | 4.02 m/s, 66° | - | - |
| 1777500192 | 6.67° C | 88% | - | 0.25 mm | 4.02 m/s, 65° | - | - |
| 1777499709 | 6.67° C | 90% | - | 0.25 mm | 3.58 m/s, 68° | - | - |
| 1777499230 | 6.67° C | 90% | - | 0.25 mm | 2.24 m/s, 45° | - | - |
| 1777498751 | 7.22° C | 91% | - | 0.25 mm | 2.24 m/s, 68° | - | - |
| 1777498269 | 7.22° C | 90% | - | 0.25 mm | 2.68 m/s, 68° | - | - |
| 1777497790 | 7.22° C | 90% | - | 0 mm | 2.24 m/s, 53° | - | - |
| 1777497311 | 7.22° C | 87% | - | 0 mm | 2.68 m/s, 65° | - | - |
| 1777496828 | 7.22° C | 87% | - | 0 mm | 4.47 m/s, 27° | - | - |
* Rain latest hour (hover to see other rain measurements)
** Current wind speed in m/s (hover to see current wind gust speed)